Location: Borgo
(42.3939°N, 9.2791°E)
Time: 21:56:27
(UTC+00:00)

CSL-04 Debris - Pass Details

Date: 27 February 2020
Orbit: 827 x 848 km, 99.0° (Epoch: 29 March)

Event Time Altitude Azimuth Distance (km) Brightness Sun altitude
Rises 17:50:58 0° 160° (SSE) 3,379 7.2 -8.4°
Reaches altitude 10° 17:53:19 10° 158° (SSE) 2,452 6.4 -8.9°
Maximum altitude 17:58:45 77° 73° (ENE) 870 4.2 -9.9°
Drops below altitude 10° 18:04:14 10° 349° (N) 2,480 6.8 -10.9°
Sets 18:06:37 0° 348° (NNW) 3,421 7.5 -11.3°
